Regional Weather Roundup
Issued by NWS

Home | Current Version | Previous Version | Graphics & Text | Print | Product List | Glossary On
Versions: 1 2 3 4 5 6 7 8 9 10 11 12 13 14 15 16 17 18 19 20 21 22 23 24 25 26 27 28 29 30 31 32 33 34 35 36 37 38 39 40 41 42 43 44 45 46 47 48 49 50
000
ASUS43 KLOT 191100
RWRIL

ILLINOIS REGIONAL WEATHER ROUNDUP
NATIONAL WEATHER SERVICE CHICAGO/ROMEOVILLE IL
600 AM CDT SAT APR 19 2014

NOTE: "FAIR" INDICATES FEW OR NO CLOUDS BELOW 12,000 FEET WITH NO
SIGNIFICANT WEATHER AND/OR OBSTRUCTIONS TO VISIBILITY.

* THESE STATIONS ARE NOT UNDER NWS QUALITY CONTROL. THEY ALSO MAY NOT
  REPORT WEATHER SUCH AS PRECIPITATION OR FOG.

ILZ001-002-007-009-015-016-024-191200-
NORTHWEST ILLINOIS

CITY           SKY/WX    TMP DP  RH WIND       PRES   REMARKS
MOLINE         PTCLDY    34  29  82 E5        30.30S WCI  30
STERLING*      CLEAR     34  27  75 E12       30.32S WCI  25
$$

ILZ003-004-008-010-011-017-018-191200-
NORTH CENTRAL ILLINOIS

CITY           SKY/WX    TMP DP  RH WIND       PRES   REMARKS
ROCKFORD       PTCLDY    35  26  69 E7        30.36F WCI  29
$$

ILZ005-006-012>014-019>023-191200-
NORTHEAST ILLINOIS

CITY           SKY/WX    TMP DP  RH WIND       PRES   REMARKS
CHICAGO-OHARE  PTCLDY    37  28  70 NE8       30.37R WCI  31
CHICAGO-MIDWAY PTCLDY    38  32  79 NE8       30.37R WCI  32
AURORA         CLEAR     35  28  75 NE9       30.35S WCI  28
WAUKEGAN       CLEAR     34  28  79 NE7       30.38R WCI  28
DUPAGE AIRPORT CLEAR     33  28  81 NE6       30.35S WCI  28
WHEELING       CLEAR     37  29  72 E3        30.40R
NORTHERLY ISL    N/A     39  33  79 NE10        N/A  WCI  32
$$

LMZ740>746-191200-
SOUTHERN LAKE MICHIGAN

STATION/POSITION SKY/WX   TEMP    WIND        PRES    VSBY  WAVE
                          AIR SEA DIR/SP/G                  HT/PER
                          (F)     (DEG/KT/KT) (MB)    (MI)  (FT/S)
WAUKEGAN HARBOR            36      60/ 13/ 15 1029.8S
HARRISON CRIB              38      50/ 15/ 18   N/A
BURNHAM HARBOR             39      40/ 10/ 13   N/A
CALUMET HARBOR             38      40/  9/ 11 1028.8R
MICHIGAN CITY              39      40/ 11/ 12   N/A
$$

ILZ025>027-034>036-040-047-049-050-058-095>099-191200-
WEST-CENTRAL ILLINOIS

CITY           SKY/WX    TMP DP  RH WIND       PRES   REMARKS
QUINCY         CLEAR     44  35  70 E13       30.25S
$$

ILZ028>032-037-038-041>044-048-051>054-059>061-191200-
CENTRAL ILLINOIS

CITY           SKY/WX    TMP DP  RH WIND       PRES   REMARKS
DECATUR        CLEAR     36  30  79 E6        30.31R WCI  31
PEORIA         CLEAR     39  24  55 E8        30.32R WCI  33
SPRINGFIELD    CLEAR     39  31  72 E6        30.30R WCI  35
TAYLORVILLE    NOT AVBL
$$

ILZ033-039-045-046-055>057-062-063-191200-
EAST-CENTRAL ILLINOIS

CITY           SKY/WX    TMP DP  RH WIND       PRES   REMARKS
CHAMPAIGN      CLEAR     37  28  70 E12       30.31R WCI  29
MATTOON          N/A     38  32  79 E6        30.29R WCI  33
$$

ILZ079-100>102-191200-
SOUTHWEST ILLINOIS

CITY           SKY/WX    TMP DP  RH WIND       PRES   REMARKS
BELLEVILLE     PTCLDY    46  42  86 NE3       30.26R
CAHOKIA*       PTCLDY    47  40  76 CALM      30.26R
$$

ILZ064>066-069>071-074>076-080>082-084>086-088>090-092>094-191200-
SOUTH-CENTRAL ILLINOIS

CITY           SKY/WX    TMP DP  RH WIND       PRES   REMARKS
CARBONDALE     PTCLDY    44  43  96 CALM      30.25R FOG
MT. VERNON     MOCLDY    48  34  57 NE7       30.27R
$$

ILZ067-068-072-073-078-083-087-091-191200-
SOUTHEAST ILLINOIS

CITY           SKY/WX    TMP DP  RH WIND       PRES   REMARKS
$$

ABBREVIATIONS USED IN REMARKS
   TC - TEMPERATURE IN CELSIUS
  WCI - WIND CHILL INDEX
   HX - HEAT INDEX
  VSB - VISIBILITY
$$




USA.gov is the U.S. government's official web portal to all federal, state and local government web resources and services.